Flag for U.S.A. Weather past 2 weeks in Aurora, Colorado, U.S.A.

Now
51 °F

Scattered clouds.


Feels Like: 51 °F
Forecast: 47 / 63 °F
Wind: 3 mph from Southwest

Location: Buckley Air Force Base

Current Time: May 29, 2015 at 8:31:16 AM

Latest Report: May 29, 2015 at 7:58 AM


Visibility: 10 mi

Pressure: 30.09 "Hg

Humidity: 82%

Dew point: 46 °F

Location of AuroraLocation

Historic Weather in Aurora — Graph

°F

Aurora temperature yesterday

Maximum temperature yesterday: 71 °F (at 11:58 AM)
Minimum temperature yesterday: 51 °F (at 3:58 AM)
Average temperature yesterday: 59 °F

Past Weeks' High & Low Weather Summary

 TemperatureHumidityPressure
High74 °F (May 27, 1:58 PM)100% (May 19, 4:58 AM)30.31 "Hg (May 19, 4:58 AM)
Low35 °F (May 20, 6:58 AM)22% (May 14, 1:58 PM)29.54 "Hg (May 15, 3:58 PM)
Average51 °F75%29.92 "Hg
* Reported May 14 6:58 AM — May 29 6:58 AM, Aurora, Weather by CustomWeather, © 2015

Note: Actual official high and low records may vary slightly from our data, if they occured in-between our weather recording intervals... More about our weather records

Advertising

Aurora weather history for previous 24 hours

 ConditionsComfort  
Time TempWeatherWind HumidityBarometerVisibility
6:58 AM
Fri, May 29
47 °FBroken clouds.3 mph90%30.09 "Hg10 mi
5:58 AM45 °FPartly cloudy.6 mph90%30.05 "Hg10 mi
4:58 AM46 °FPassing clouds.5 mph88%30.03 "Hg10 mi
3:58 AM47 °FPassing clouds.No wind84%30.01 "Hg10 mi
2:58 AM48 °FPassing clouds.7 mph89%30.01 "Hg10 mi
1:58 AM48 °FPartly cloudy.7 mph89%30.01 "Hg10 mi
12:58 AM49 °FPartly cloudy.8 mph90%29.99 "Hg10 mi
11:58 PM
Thu, May 28
51 °FPartly cloudy.7 mph83%29.98 "Hg10 mi
10:58 PM53 °FPassing clouds.8 mph88%30.01 "Hg10 mi
9:58 PM53 °FPassing clouds.8 mph88%30.01 "Hg10 mi
8:58 PM55 °FBroken clouds.7 mph84%29.95 "Hg10 mi
7:58 PM58 °FThunderstorms. Broken clouds.6 mph80%29.93 "Hg10 mi
6:58 PM60 °FBroken clouds.9 mph61%29.89 "Hg10 mi
5:58 PM66 °FThundershowers. Broken clouds.12 mph53%29.82 "Hg10 mi
4:58 PM68 °FBroken clouds.10 mph46%29.81 "Hg10 mi
3:58 PM70 °FBroken clouds.13 mph40%29.83 "Hg10 mi
2:58 PM64 °FPartly sunny.5 mph56%29.86 "Hg10 mi
1:58 PM65 °FThundershowers. Broken clouds.8 mph42%29.87 "Hg10 mi
12:58 PM70 °FScattered showers. Broken clouds.8 mph40%29.86 "Hg10 mi
11:58 AM71 °FBroken clouds.3 mph39%29.87 "Hg10 mi
10:58 AM66 °FBroken clouds.6 mph43%29.88 "Hg10 mi
9:58 AM63 °FPartly sunny.5 mph61%29.90 "Hg10 mi
8:58 AM61 °FBroken clouds.3 mph65%29.92 "Hg10 mi
Weather by CustomWeather, © 2015

See weather overviewHow to use our weather pages